FW1564 Weather Reports


time (UTC)temp
C
wind
direction
speed
KPH
gust
KPH
rain 1hr
cm
rain 24hr
cm
rain mn
cm
humidity
%
barometer
mb
20200918093901 20 213 3.2 8.0 0.00 0.20 0.00 75 1018.5
20200918092848 20 323 0.0 8.0 0.00 0.20 0.00 74 1018.3
20200918091843 20 358 1.6 8.0 0.00 0.20 0.00 74 1018.3
20200918090836 20 129 1.6 12.9 0.00 0.20 0.00 73 1018.2
20200918085834 19 195 0.0 8.0 0.00 0.20 0.00 74 1017.9
20200918084811 18 17 4.8 12.9 0.00 0.20 0.00 73 1017.7
20200918083816 17 348 3.2 12.9 0.00 0.20 0.00 75 1017.4
20200918082757 17 351 4.8 20.9 0.00 0.20 0.00 75 1017.2
20200918081744 16 322 6.4 12.9 0.00 0.20 0.00 72 1017.1
20200918080740 16 355 4.8 16.1 0.00 0.20 0.00 73 1016.9
20200918075739 16 0 9.7 16.1 0.00 0.20 0.00 74 1016.9
20200918074726 16 19 6.4 16.1 0.00 0.20 0.00 72 1016.9
20200918073722 16 345 6.4 16.1 0.00 0.20 0.00 73 1016.8
20200918072718 16 334 11.3 16.1 0.00 0.20 0.00 73 1016.8
20200918071656 16 329 3.2 16.1 0.00 0.20 0.00 74 1016.6
20200918070642 16 332 9.7 16.1 0.00 0.20 0.00 73 1016.3
20200918065630 16 330 8.0 12.9 0.00 0.20 0.00 75 1016.3
20200918064635 16 341 3.2 12.9 0.00 0.20 0.00 71 1015.9
20200918063617 16 328 12.9 16.1 0.00 0.20 0.00 71 1015.9
20200918062607 16 288 0.0 12.9 0.00 0.20 0.00 70 1015.8
20200918061558 16 317 6.4 16.1 0.00 0.20 0.00 72 1015.8
20200918060546 16 325 8.0 16.1 0.00 0.20 0.00 67 1015.8
20200918055545 16 334 8.0 16.1 0.00 0.20 0.00 68 1015.7
20200918054535 16 322 6.4 16.1 0.00 0.20 0.00 67 1015.8
20200918053532 16 0 12.9 20.9 0.00 0.20 0.00 70 1015.7
20200918052512 16 353 4.8 12.9 0.00 0.20 0.00 73 1015.5
20200918051516 16 356 6.4 16.1 0.00 0.20 0.00 73 1015.4
20200918050451 16 331 8.0 16.1 0.00 0.20 0.00 74 1015.4
20200918045456 16 326 9.7 16.1 0.00 0.20 0.00 77 1015.3
20200918044451 16 351 11.3 16.1 0.00 0.20 0.00 77 1015.4
20200918043438 16 336 9.7 16.1 0.00 0.20 0.00 79 1015.4
20200918042424 16 331 8.0 12.9 0.00 0.20 0.00 76 1015.3
20200918041430 16 338 6.4 12.9 0.00 0.20 0.00 75 1015.3
20200918040411 16 332 8.0 12.9 0.00 0.20 0.00 73 1015.2
20200918035356 16 334 3.2 16.1 0.00 0.20 0.00 70 1015.2
20200918034358 16 342 9.7 16.1 0.00 0.20 0.00 71 1015.2
20200918033354 16 341 8.0 16.1 0.00 0.20 0.00 68 1015.3
20200918032337 16 338 11.3 16.1 0.00 0.20 0.00 69 1015.3
20200918031336 16 345 8.0 16.1 0.00 0.20 0.00 72 1015.5
20200918030325 16 346 14.5 20.9 0.00 0.20 0.00 68 1015.4
20200918025314 16 337 6.4 16.1 0.00 0.20 0.00 71 1015.5
20200918024316 16 344 9.7 16.1 0.00 0.20 0.00 72 1015.5
20200918023306 16 342 11.3 12.9 0.00 0.20 0.00 70 1015.6
20200918022258 16 336 8.0 16.1 0.00 0.20 0.00 69 1015.5
20200918021257 16 352 6.4 20.9 0.00 0.20 0.00 72 1015.4
20200918020237 16 325 8.0 16.1 0.00 0.20 0.00 72 1015.3
20200918015235 16 332 9.7 20.9 0.00 0.20 0.00 72 1015.6
20200918014226 16 333 11.3 16.1 0.00 0.20 0.00 75 1015.5
20200918013217 16 339 8.0 16.1 0.00 0.20 0.00 77 1015.5
20200918012220 16 309 8.0 16.1 0.00 0.20 0.00 76 1015.7
20200918011157 16 351 6.4 12.9 0.00 0.20 0.00 74 1015.7
20200918010149 16 338 6.4 16.1 0.00 0.20 0.00 74 1015.5
20200918005155 16 338 8.0 16.1 0.00 0.20 0.00 75 1015.5
20200918004129 16 349 9.7 12.9 0.00 0.20 0.00 77 1015.5
20200918003133 16 334 8.0 20.9 0.00 0.20 0.00 77 1015.5
20200918002110 16 166 0.0 16.1 0.00 0.20 0.00 78 1015.5
20200918001125 16 340 9.7 20.9 0.00 0.20 0.00 76 1015.5
20200918000102 16 348 4.8 16.1 0.00 0.20 0.00 75 1015.5
20200917235052 16 356 9.7 16.1 0.00 0.20 0.00 75 1015.6
20200917234054 17 357 6.4 12.9 0.00 0.20 0.00 75 1015.6
20200917233044 17 336 9.7 16.1 0.00 0.20 0.00 76 1015.4
20200917232034 17 19 3.2 12.9 0.00 0.20 0.00 77 1015.5
20200917231027 17 327 4.8 16.1 0.00 0.20 0.00 77 1015.6
20200917230035 17 323 1.6 12.9 0.00 0.20 0.00 79 1015.7
20200917225018 17 238 0.0 8.0 0.00 0.20 0.23 79 1015.7
20200917224009 17 346 0.0 8.0 0.00 0.20 0.23 78 1015.7
20200917222957 17 229 0.0 12.9 0.00 0.20 0.23 76 1015.8
20200917222016 17 293 0.0 8.0 0.00 0.20 0.23 77 1015.7
20200917220946 17 326 4.8 8.0 0.00 0.20 0.23 78 1015.8
20200917215958 17 233 1.6 12.9 0.00 0.20 0.23 77 1015.6
20200917214941 17 273 1.6 12.9 0.00 0.20 0.23 79 1015.9
20200917213931 17 217 0.0 0.0 0.00 0.20 0.23 78 1015.9
20200917212916 17 225 0.0 12.9 0.00 0.20 0.23 76 1015.7
20200917211916 17 218 4.8 16.1 0.00 0.20 0.23 76 1015.6
20200917210907 17 243 0.0 12.9 0.00 0.20 0.23 73 1015.3
20200917205909 17 335 1.6 8.0 0.00 0.20 0.23 77 1015.3
20200917204857 17 340 0.0 3.2 0.00 0.20 0.23 79 1015.3
20200917203849 17 331 1.6 8.0 0.00 0.20 0.23 77 1015.2
20200917202852 18 54 1.6 8.0 0.00 0.20 0.23 77 1015.1
20200917201839 18 197 0.0 12.9 0.00 0.20 0.23 76 1014.9
20200917200840 17 38 3.2 12.9 0.00 0.20 0.23 74 1014.7
20200917195842 17 328 4.8 12.9 0.00 0.20 0.23 76 1014.8
20200917194835 18 326 6.4 8.0 0.00 0.20 0.23 79 1014.8
20200917193828 18 30 4.8 8.0 0.00 0.20 0.23 77 1014.7
20200917192808 18 326 0.0 8.0 0.00 0.20 0.23 76 1014.6
20200917191815 18 237 0.0 8.0 0.00 0.20 0.23 75 1014.6
20200917190801 18 78 1.6 12.9 0.00 0.20 0.23 75 1014.5
20200917185806 18 201 6.4 8.0 0.00 0.20 0.23 72 1014.2
20200917184758 18 190 0.0 12.9 0.00 0.20 0.23 68 1014.3
20200917183753 19 354 1.6 12.9 0.00 0.20 0.23 67 1014.3
20200917182742 19 355 3.2 12.9 0.00 0.20 0.23 64 1014.3
20200917181731 19 70 0.0 16.1 0.00 0.20 0.23 61 1014.3
20200917180730 20 331 9.7 20.9 0.00 0.20 0.23 61 1014.2
20200917175728 20 339 3.2 20.9 0.00 0.20 0.23 62 1014.0
20200917174722 20 107 4.8 16.1 0.00 0.20 0.23 63 1014.0
20200917173721 20 338 1.6 20.9 0.00 0.20 0.23 64 1013.8
20200917172720 20 61 3.2 16.1 0.00 0.20 0.23 64 1014.1
20200917171707 20 23 4.8 12.9 0.00 0.20 0.23 67 1014.0
20200917170710 20 226 0.0 16.1 0.00 0.20 0.23 70 1014.0
20200917170216 20 274 3.2 12.9 0.00 0.20 0.23 75 1014.0
20200917164700 21 113 3.2 20.9 0.00 0.20 0.23 73 1014.1
20200917163657 21 7 6.4 24.1 0.00 0.20 0.23 68 1014.1
20200917162649 21 19 16.1 24.1 0.00 0.20 0.23 63 1014.2
20200917161637 21 228 0.0 16.1 0.00 0.20 0.23 68 1014.1
20200917160639 21 242 1.6 12.9 0.00 0.20 0.23 65 1014.0
20200917155628 21 83 1.6 24.1 0.00 0.20 0.23 69 1014.0
20200917154618 21 272 1.6 16.1 0.00 0.20 0.23 69 1014.0
20200917153620 22 349 3.2 12.9 0.00 0.20 0.23 68 1013.9
20200917152612 22 176 8.0 24.1 0.00 0.20 0.23 67 1013.9
20200917151555 22 75 8.0 20.9 0.00 0.20 0.23 65 1013.9
20200917150604 22 211 0.0 16.1 0.00 0.20 0.23 63 1013.9
20200917145544 21 355 0.0 24.1 0.00 0.20 0.23 62 1014.0
20200917144535 21 299 4.8 16.1 0.00 0.20 0.23 64 1014.2
20200917143536 20 335 9.7 20.9 0.00 0.20 0.23 69 1014.2
20200917142533 19 110 1.6 20.9 0.00 0.20 0.23 70 1014.2
20200917141534 18 334 16.1 24.1 0.00 0.20 0.23 74 1014.0
20200917140521 18 316 1.6 24.1 0.00 0.20 0.23 80 1014.5
20200917135519 17 320 4.8 24.1 0.00 0.20 0.23 78 1014.6
20200917134519 17 348 8.0 16.1 0.03 0.20 0.23 82 1015.0
20200917133510 18 17 11.3 16.1 0.03 0.20 0.23 82 1015.2
20200917132457 18 107 3.2 20.9 0.03 0.20 0.23 80 1015.1
20200917131449 18 5 9.7 20.9 0.03 0.20 0.23 78 1015.4
20200917130444 18 29 6.4 12.9 0.03 0.20 0.23 78 1015.2
20200917125442 18 272 0.0 20.9 0.10 0.20 0.23 79 1015.2
20200917124435 18 229 6.4 20.9 0.10 0.18 0.20 78 1015.2
20200917123434 17 348 3.2 8.0 0.15 0.18 0.20 82 1015.3
20200917122423 17 42 0.0 16.1 0.15 0.18 0.20 83 1015.4
20200917121418 17 59 1.6 12.9 0.18 0.18 0.20 87 1015.5
20200917120412 17 339 4.8 16.1 0.18 0.18 0.20 90 1015.6
20200917115413 17 281 3.2 16.1 0.13 0.13 0.15 90 1016.0
20200917114414 18 165 1.6 12.9 0.10 0.10 0.13 87 1015.9
20200917113415 18 149 0.0 12.9 0.03 0.03 0.05 83 1016.0
20200917112419 19 186 0.0 8.0 0.03 0.03 0.05 79 1016.1
20200917111423 19 193 0.0 8.0 0.00 0.00 0.03 74 1016.0
20200917110407 19 183 1.6 12.9 0.00 0.00 0.03 73 1016.0
20200917105406 19 193 0.0 16.1 0.00 0.00 0.03 73 1016.0
20200917104358 18 96 4.8 12.9 0.00 0.00 0.03 73 1016.0
20200917103407 18 192 0.0 12.9 0.00 0.00 0.03 73 1016.0
20200917102347 18 219 0.0 16.1 0.00 0.00 0.03 74 1015.9
20200917101335 17 224 0.0 12.9 0.00 0.00 0.03 76 1015.9
20200917100349 17 131 0.0 8.0 0.00 0.00 0.03 78 1015.8
20200917095338 17 275 0.0 12.9 0.00 0.00 0.03 82 1015.6